START_TIME,STEP,MOV.,H8,t_acc.,H43,t_acc.,M25,t_acc.,H9,t_acc.
1979-03-04 12:00:19.000 ,1,0,0.,12.0,0.,12.0,0.,12.0,0.,12.0
1979-03-04 12:00:31.000 ,1,0,0.,12.0,0.,12.0,0.,12.0,0.,12.0
1979-03-04 12:00:43.000 ,2,0,0.,12.0,0.,12.0,0.,12.0,0.,12.0
1979-03-04 12:00:55.000 ,2,0,0.,12.0,0.,12.0,0.,12.0,0.,12.0
1979-03-04 12:01:07.000 ,3,0,0.,12.0,0.,12.0,0.,12.0,0.,12.0
1979-03-04 12:01:19.000 ,3,0,0.,12.0,0.,12.0,0.,12.0,0.,12.0
1979-03-04 12:01:31.000 ,4,0,0.,12.0,0.,12.0,0.,12.0,0.,12.0
1979-03-04 12:01:43.000 ,4,0,0.,12.0,0.,12.0,0.,12.0,0.,12.0
1979-03-04 12:01:55.000 ,5,0,0.,12.0,0.,12.0,0.,12.0,0.,12.0
1979-03-04 12:02:07.000 ,5,0,0.,12.0,0.,12.0,0.,12.0,0.,12.0
1979-03-04 12:02:19.000 ,6,0,0.,12.0,0.,12.0,0.,12.0,0.,12.0
1979-03-04 12:02:31.000 ,6,0,0.,12.0,0.,12.0,0.,12.0,0.,12.0
1979-03-04 12:02:43.000 ,7,0,1.,12.0,0.,12.0,0.,12.0,0.,12.0
1979-03-04 12:02:55.000 ,7,0,0.,12.0,0.,12.0,0.,12.0,0.,12.0
1979-03-04 12:03:07.000 ,7,0,0.,12.0,0.,12.0,0.,12.0,0.,12.0
1979-03-04 12:03:19.000 ,7,0,0.,12.0,0.,12.0,0.,12.0,0.,12.0
1979-03-04 12:03:31.000 ,6,0,0.,12.0,0.,12.0,0.,12.0,0.,12.0
1979-03-04 12:03:43.000 ,6,0,0.,12.0,0.,12.0,0.,12.0,0.,12.0
1979-03-04 12:03:55.000 ,5,0,0.,12.0,0.,12.0,0.,12.0,0.,12.0
1979-03-04 12:04:07.000 ,5,0,0.,12.0,0.,12.0,0.,12.0,0.,12.0
1979-03-04 12:04:19.000 ,4,0,0.,12.0,0.,12.0,0.,12.0,0.,12.0
1979-03-04 12:04:31.000 ,4,0,0.,12.0,0.,12.0,0.,12.0,0.,12.0
1979-03-04 12:04:43.000 ,3,0,0.,12.0,0.,12.0,0.,12.0,0.,12.0
1979-03-04 12:04:55.000 ,3,0,0.,12.0,0.,12.0,0.,12.0,0.,12.0
1979-03-04 12:05:07.000 ,2,0,0.,12.0,0.,12.0,0.,12.0,0.,12.0
1979-03-04 12:05:19.000 ,2,0,0.,12.0,0.,12.0,0.,12.0,0.,12.0
1979-03-04 12:05:31.000 ,1,0,0.,12.0,0.,12.0,0.,12.0,0.,12.0
1979-03-04 12:05:43.000 ,1,0,0.,12.0,0.,12.0,0.,12.0,0.,12.0
1979-03-04 12:05:55.000 ,0,0,0.,12.0,0.,12.0,0.,12.0,0.,12.0
1979-03-04 12:06:07.000 ,0,0,0.,12.0,0.,12.0,0.,12.0,0.,12.0
1979-03-04 12:06:19.000 ,0,0,0.,12.0,0.,12.0,0.,12.0,0.,12.0
1979-03-04 12:06:31.000 ,0,0,0.,12.0,0.,12.0,0.,12.0,0.,12.0
1979-03-04 12:06:43.000 ,1,0,0.,12.0,0.,12.0,0.,12.0,0.,12.0
1979-03-04 12:06:55.000 ,1,0,1.,12.0,0.,12.0,0.,12.0,0.,12.0
1979-03-04 12:07:07.000 ,2,0,0.,12.0,0.,12.0,0.,12.0,0.,12.0
1979-03-04 12:07:19.000 ,2,0,0.,12.0,0.,12.0,0.,12.0,0.,12.0
1979-03-04 12:07:31.000 ,3,0,0.,12.0,0.,12.0,0.,12.0,0.,12.0
1979-03-04 12:07:43.000 ,3,0,0.,12.0,0.,12.0,0.,12.0,0.,12.0
1979-03-04 12:07:55.000 ,4,0,0.,12.0,0.,12.0,0.,12.0,0.,12.0
1979-03-04 12:08:07.000 ,4,0,0.,12.0,0.,12.0,0.,12.0,0.,12.0
1979-03-04 12:08:19.000 ,5,0,0.,12.0,0.,12.0,0.,12.0,0.,12.0
1979-03-04 12:08:31.000 ,5,0,0.,12.0,0.,12.0,0.,12.0,0.,12.0
1979-03-04 12:08:43.000 ,6,0,0.,12.0,0.,12.0,0.,12.0,0.,12.0
1979-03-04 12:08:55.000 ,6,0,1.,12.0,0.,12.0,0.,12.0,0.,12.0
1979-03-04 12:09:07.000 ,7,0,0.,12.0,0.,12.0,0.,12.0,0.,12.0
1979-03-04 12:09:19.000 ,7,0,0.,12.0,0.,12.0,0.,12.0,0.,12.0
1979-03-04 12:09:31.000 ,7,0,0.,12.0,0.,12.0,0.,12.0,0.,12.0
1979-03-04 12:09:43.000 ,7,0,0.,12.0,0.,12.0,0.,12.0,0.,12.0
1979-03-04 12:09:55.000 ,6,0,0.,12.0,0.,12.0,0.,12.0,0.,12.0
1979-03-04 12:10:07.000 ,6,0,0.,12.0,0.,12.0,0.,12.0,0.,12.0
1979-03-04 12:10:19.000 ,5,0,1.,12.0,0.,12.0,0.,12.0,0.,12.0
1979-03-04 12:10:31.000 ,5,0,0.,12.0,0.,12.0,0.,12.0,0.,12.0
1979-03-04 12:10:43.000 ,4,0,0.,12.0,0.,12.0,0.,12.0,0.,12.0
1979-03-04 12:10:55.000 ,4,0,0.,12.0,0.,12.0,0.,12.0,0.,12.0
1979-03-04 12:11:07.000 ,3,0,0.,12.0,0.,12.0,0.,12.0,0.,12.0
1979-03-04 12:11:19.000 ,3,0,0.,12.0,0.,12.0,0.,12.0,0.,12.0
1979-03-04 12:11:31.000 ,2,0,0.,12.0,0.,12.0,0.,12.0,0.,12.0
1979-03-04 12:11:43.000 ,2,0,0.,12.0,0.,12.0,0.,12.0,0.,12.0
1979-03-04 12:11:55.000 ,1,0,0.,12.0,0.,12.0,0.,12.0,0.,12.0
1979-03-04 12:12:07.000 ,1,0,0.,12.0,0.,12.0,0.,12.0,0.,12.0
1979-03-04 12:12:19.000 ,0,0,0.,12.0,0.,12.0,0.,12.0,0.,12.0
1979-03-04 12:12:31.000 ,0,0,0.,12.0,0.,12.0,0.,12.0,0.,12.0
1979-03-04 12:12:43.000 ,0,0,0.,12.0,0.,12.0,0.,12.0,0.,12.0
1979-03-04 12:12:55.000 ,0,0,0.,12.0,0.,12.0,0.,12.0,0.,12.0
1979-03-04 12:13:07.000 ,1,0,0.,12.0,0.,12.0,0.,12.0,0.,12.0
1979-03-04 12:13:19.000 ,1,0,0.,12.0,0.,12.0,0.,12.0,0.,12.0
1979-03-04 12:13:31.000 ,2,0,0.,12.0,0.,12.0,0.,12.0,0.,12.0
1979-03-04 12:13:43.000 ,2,0,0.,12.0,0.,12.0,0.,12.0,0.,12.0
1979-03-04 12:13:55.000 ,3,0,0.,12.0,0.,12.0,0.,12.0,0.,12.0
1979-03-04 12:14:07.000 ,3,0,0.,12.0,0.,12.0,0.,12.0,0.,12.0
1979-03-04 12:14:19.000 ,4,0,0.,12.0,0.,12.0,0.,12.0,0.,12.0
1979-03-04 12:14:31.000 ,4,0,0.,12.0,0.,12.0,0.,12.0,0.,12.0
1979-03-04 12:14:43.000 ,5,0,0.,12.0,0.,12.0,0.,12.0,0.,12.0
1979-03-04 12:14:55.000 ,5,0,0.,12.0,0.,12.0,0.,12.0,0.,12.0
1979-03-04 12:15:07.000 ,6,0,0.,12.0,0.,12.0,0.,12.0,0.,12.0
1979-03-04 12:15:19.000 ,6,0,0.,12.0,0.,12.0,0.,12.0,0.,12.0
1979-03-04 12:15:31.000 ,7,0,0.,12.0,0.,12.0,0.,12.0,0.,12.0
1979-03-04 12:15:43.000 ,7,0,0.,12.0,0.,12.0,0.,12.0,0.,12.0
1979-03-04 12:15:55.000 ,7,0,0.,12.0,0.,12.0,0.,12.0,0.,12.0
1979-03-04 12:16:07.000 ,7,0,0.,12.0,0.,12.0,0.,12.0,0.,12.0
1979-03-04 12:16:19.000 ,6,0,0.,12.0,0.,12.0,0.,12.0,0.,12.0
1979-03-04 12:16:31.000 ,6,0,0.,12.0,0.,12.0,0.,12.0,0.,12.0
1979-03-04 12:16:43.000 ,5,0,0.,12.0,0.,12.0,0.,12.0,0.,12.0
1979-03-04 12:16:55.000 ,5,0,2.,12.0,0.,12.0,0.,12.0,0.,12.0
1979-03-04 12:17:07.000 ,4,0,,0,,0,,0,,0
1979-03-04 12:17:19.000 ,4,0,0.,12.0,0.,12.0,0.,12.0,0.,12.0
1979-03-04 12:17:31.000 ,3,0,0.,12.0,0.,12.0,0.,12.0,0.,12.0
1979-03-04 12:17:43.000 ,3,0,0.,12.0,0.,12.0,0.,12.0,0.,12.0
1979-03-04 12:17:55.000 ,2,0,0.,12.0,0.,12.0,0.,12.0,0.,12.0
1979-03-04 12:18:07.000 ,2,0,0.,12.0,0.,12.0,0.,12.0,0.,12.0
1979-03-04 12:18:19.000 ,1,0,0.,12.0,0.,12.0,0.,12.0,0.,12.0
1979-03-04 12:18:31.000 ,1,0,0.,12.0,0.,12.0,0.,12.0,0.,12.0
1979-03-04 12:18:43.000 ,0,0,0.,12.0,0.,12.0,0.,12.0,0.,12.0
1979-03-04 12:18:55.000 ,0,0,0.,12.0,0.,12.0,0.,12.0,0.,12.0
1979-03-04 12:19:07.000 ,0,0,0.,12.0,0.,12.0,0.,12.0,0.,12.0
1979-03-04 12:19:19.000 ,0,0,0.,12.0,0.,12.0,0.,12.0,0.,12.0
1979-03-04 12:19:31.000 ,1,0,0.,12.0,0.,12.0,0.,12.0,0.,12.0
1979-03-04 12:19:43.000 ,1,0,0.,12.0,0.,12.0,0.,12.0,0.,12.0
1979-03-04 12:19:55.000 ,2,0,0.,12.0,0.,12.0,0.,12.0,0.,12.0
1979-03-04 12:20:07.000 ,2,0,0.,12.0,0.,12.0,0.,12.0,0.,12.0
1979-03-04 12:20:19.000 ,3,0,0.,12.0,0.,12.0,0.,12.0,0.,12.0
1979-03-04 12:20:31.000 ,3,0,1.,12.0,0.,12.0,0.,12.0,0.,12.0
1979-03-04 12:20:43.000 ,4,0,0.,12.0,0.,12.0,0.,12.0,0.,12.0
1979-03-04 12:20:55.000 ,4,0,0.,12.0,0.,12.0,0.,12.0,0.,12.0
1979-03-04 12:21:07.000 ,5,0,0.,12.0,0.,12.0,0.,12.0,0.,12.0
1979-03-04 12:21:19.000 ,5,0,0.,12.0,0.,12.0,0.,12.0,0.,12.0
1979-03-04 12:21:31.000 ,6,0,0.,12.0,0.,12.0,0.,12.0,0.,12.0
1979-03-04 12:21:43.000 ,6,0,0.,12.0,0.,12.0,0.,12.0,0.,12.0
1979-03-04 12:21:55.000 ,7,0,0.,12.0,0.,12.0,0.,12.0,0.,12.0
1979-03-04 12:22:07.000 ,7,0,0.,12.0,0.,12.0,0.,12.0,0.,12.0
1979-03-04 12:22:19.000 ,7,0,0.,12.0,0.,12.0,0.,12.0,0.,12.0
1979-03-04 12:22:31.000 ,7,0,0.,12.0,0.,12.0,0.,12.0,0.,12.0
1979-03-04 12:22:43.000 ,6,0,0.,12.0,0.,12.0,0.,12.0,0.,12.0
1979-03-04 12:22:55.000 ,6,0,1.,12.0,0.,12.0,0.,12.0,0.,12.0
1979-03-04 12:23:07.000 ,5,0,0.,12.0,0.,12.0,0.,12.0,0.,12.0
1979-03-04 12:23:19.000 ,5,0,0.,12.0,0.,12.0,0.,12.0,0.,12.0
1979-03-04 12:23:31.000 ,4,0,0.,12.0,0.,12.0,0.,12.0,0.,12.0
1979-03-04 12:23:43.000 ,4,0,0.,12.0,0.,12.0,0.,12.0,0.,12.0
1979-03-04 12:23:55.000 ,3,0,0.,12.0,0.,12.0,0.,12.0,0.,12.0
1979-03-04 12:24:07.000 ,3,0,0.,12.0,0.,12.0,0.,12.0,0.,12.0
1979-03-04 12:24:19.000 ,2,0,0.,12.0,0.,12.0,0.,12.0,0.,12.0
1979-03-04 12:24:31.000 ,2,0,0.,12.0,0.,12.0,0.,12.0,0.,12.0
1979-03-04 12:24:43.000 ,1,0,0.,12.0,0.,12.0,0.,12.0,0.,12.0
1979-03-04 12:24:55.000 ,1,0,0.,12.0,0.,12.0,0.,12.0,0.,12.0
1979-03-04 12:25:07.000 ,0,0,0.,12.0,0.,12.0,0.,12.0,0.,12.0
1979-03-04 12:25:19.000 ,0,0,0.,12.0,0.,12.0,0.,12.0,0.,12.0
1979-03-04 12:25:31.000 ,0,0,0.,12.0,0.,12.0,0.,12.0,0.,12.0
1979-03-04 12:25:43.000 ,0,0,0.,12.0,0.,12.0,0.,12.0,0.,12.0
1979-03-04 12:25:55.000 ,1,0,0.,12.0,0.,12.0,0.,12.0,0.,12.0
1979-03-04 12:26:07.000 ,1,0,0.,12.0,0.,12.0,0.,12.0,0.,12.0
1979-03-04 12:26:19.000 ,2,0,0.,12.0,0.,12.0,0.,12.0,0.,12.0
1979-03-04 12:26:31.000 ,2,0,0.,12.0,0.,12.0,0.,12.0,0.,12.0
1979-03-04 12:26:43.000 ,3,0,0.,12.0,0.,12.0,0.,12.0,0.,12.0
1979-03-04 12:26:55.000 ,3,0,0.,12.0,0.,12.0,0.,12.0,0.,12.0
1979-03-04 12:27:07.000 ,4,0,0.,12.0,0.,12.0,0.,12.0,0.,12.0
1979-03-04 12:27:19.000 ,4,0,1.,12.0,0.,12.0,0.,12.0,0.,12.0
1979-03-04 12:27:31.000 ,5,0,0.,12.0,0.,12.0,0.,12.0,0.,12.0
1979-03-04 12:27:43.000 ,5,0,0.,12.0,0.,12.0,0.,12.0,0.,12.0
1979-03-04 12:27:55.000 ,6,0,0.,12.0,0.,12.0,0.,12.0,0.,12.0
1979-03-04 12:28:07.000 ,6,0,0.,12.0,0.,12.0,0.,12.0,0.,12.0
1979-03-04 12:28:19.000 ,7,0,0.,12.0,0.,12.0,0.,12.0,0.,12.0
1979-03-04 12:28:31.000 ,7,0,0.,12.0,0.,12.0,0.,12.0,0.,12.0
1979-03-04 12:28:43.000 ,7,0,0.,12.0,0.,12.0,0.,12.0,0.,12.0
1979-03-04 12:28:55.000 ,7,0,0.,12.0,0.,12.0,0.,12.0,0.,12.0
1979-03-04 12:29:07.000 ,6,0,0.,12.0,0.,12.0,0.,12.0,0.,12.0
1979-03-04 12:29:19.000 ,6,0,0.,12.0,0.,12.0,0.,12.0,0.,12.0
1979-03-04 12:29:31.000 ,5,0,1.,12.0,0.,12.0,0.,12.0,0.,12.0
1979-03-04 12:29:43.000 ,5,0,1.,12.0,0.,12.0,0.,12.0,0.,12.0
1979-03-04 12:29:55.000 ,4,0,0.,12.0,0.,12.0,0.,12.0,0.,12.0
1979-03-04 12:30:07.000 ,4,0,0.,12.0,0.,12.0,0.,12.0,0.,12.0
1979-03-04 12:30:19.000 ,3,0,0.,12.0,0.,12.0,0.,12.0,0.,12.0
1979-03-04 12:30:31.000 ,3,0,0.,12.0,0.,12.0,0.,12.0,0.,12.0
1979-03-04 12:30:43.000 ,2,0,0.,12.0,0.,12.0,0.,12.0,0.,12.0
1979-03-04 12:30:55.000 ,2,0,0.,12.0,0.,12.0,0.,12.0,0.,12.0
1979-03-04 12:31:07.000 ,1,0,0.,12.0,0.,12.0,0.,12.0,0.,12.0
1979-03-04 12:31:19.000 ,1,0,0.,12.0,0.,12.0,0.,12.0,0.,12.0
1979-03-04 12:31:31.000 ,0,0,0.,12.0,0.,12.0,0.,12.0,0.,12.0
1979-03-04 12:31:43.000 ,0,0,0.,12.0,0.,12.0,0.,12.0,0.,12.0
1979-03-04 12:31:55.000 ,0,0,0.,12.0,0.,12.0,0.,12.0,0.,12.0
1979-03-04 12:32:07.000 ,0,0,0.,12.0,0.,12.0,0.,12.0,0.,12.0
1979-03-04 12:32:19.000 ,1,0,0.,12.0,0.,12.0,0.,12.0,0.,12.0
1979-03-04 12:32:31.000 ,1,0,0.,12.0,0.,12.0,0.,12.0,0.,12.0
1979-03-04 12:33:31.000 ,0,0,0.,12.0,0.,12.0,0.,12.0,0.,12.0
1979-03-04 12:33:43.000 ,0,0,0.,12.0,0.,12.0,0.,12.0,0.,12.0
1979-03-04 12:33:55.000 ,5,0,0.,12.0,0.,12.0,0.,12.0,0.,12.0
1979-03-04 12:34:07.000 ,5,0,0.,12.0,0.,12.0,0.,12.0,0.,12.0
1979-03-04 12:34:19.000 ,6,0,0.,12.0,0.,12.0,0.,12.0,0.,12.0
1979-03-04 12:34:31.000 ,6,0,1.,12.0,0.,12.0,0.,12.0,0.,12.0
1979-03-04 12:34:43.000 ,7,0,0.,12.0,0.,12.0,0.,12.0,0.,12.0
1979-03-04 12:34:55.000 ,7,0,0.,12.0,0.,12.0,0.,12.0,0.,12.0
1979-03-04 12:35:07.000 ,7,0,0.,12.0,0.,12.0,0.,12.0,0.,12.0
1979-03-04 12:35:19.000 ,7,0,0.,12.0,0.,12.0,0.,12.0,0.,12.0
1979-03-04 12:35:31.000 ,6,0,0.,12.0,0.,12.0,0.,12.0,0.,12.0
1979-03-04 12:35:43.000 ,6,0,2.,12.0,0.,12.0,0.,12.0,0.,12.0
1979-03-04 12:35:55.000 ,5,0,0.,12.0,0.,12.0,0.,12.0,0.,12.0
1979-03-04 12:36:07.000 ,5,0,0.,12.0,0.,12.0,0.,12.0,0.,12.0
1979-03-04 12:36:19.000 ,4,0,0.,12.0,0.,12.0,0.,12.0,0.,12.0
1979-03-04 12:36:31.000 ,4,0,0.,12.0,0.,12.0,0.,12.0,0.,12.0
1979-03-04 12:36:43.000 ,3,0,0.,12.0,0.,12.0,0.,12.0,0.,12.0
1979-03-04 12:36:55.000 ,3,0,0.,12.0,0.,12.0,0.,12.0,0.,12.0
1979-03-04 12:37:07.000 ,2,0,0.,12.0,0.,12.0,0.,12.0,0.,12.0
1979-03-04 12:37:19.000 ,2,0,0.,12.0,0.,12.0,0.,12.0,0.,12.0
1979-03-04 12:37:31.000 ,1,0,0.,12.0,0.,12.0,0.,12.0,0.,12.0
1979-03-04 12:37:43.000 ,1,0,0.,12.0,0.,12.0,0.,12.0,0.,12.0
1979-03-04 12:37:55.000 ,0,0,0.,12.0,0.,12.0,0.,12.0,0.,12.0
1979-03-04 12:38:07.000 ,0,0,0.,12.0,0.,12.0,0.,12.0,0.,12.0
1979-03-04 12:38:19.000 ,0,0,0.,12.0,0.,12.0,0.,12.0,0.,12.0
1979-03-04 12:38:31.000 ,0,0,0.,12.0,0.,12.0,0.,12.0,0.,12.0
1979-03-04 12:38:43.000 ,1,0,0.,12.0,0.,12.0,0.,12.0,0.,12.0
1979-03-04 12:38:55.000 ,1,0,0.,12.0,0.,12.0,0.,12.0,0.,12.0
1979-03-04 12:39:07.000 ,2,0,0.,12.0,0.,12.0,0.,12.0,0.,12.0
1979-03-04 12:39:19.000 ,2,0,0.,12.0,0.,12.0,0.,12.0,0.,12.0
1979-03-04 12:39:31.000 ,3,0,0.,12.0,0.,12.0,0.,12.0,0.,12.0
1979-03-04 12:39:43.000 ,3,0,0.,12.0,0.,12.0,0.,12.0,0.,12.0
1979-03-04 12:39:55.000 ,4,0,0.,12.0,0.,12.0,0.,12.0,0.,12.0
1979-03-04 12:40:07.000 ,4,0,0.,12.0,0.,12.0,0.,12.0,0.,12.0
1979-03-04 12:40:19.000 ,5,0,0.,12.0,0.,12.0,0.,12.0,0.,12.0
1979-03-04 12:40:31.000 ,5,0,1.,12.0,0.,12.0,0.,12.0,0.,12.0
1979-03-04 12:40:43.000 ,6,0,4.,12.0,0.,12.0,0.,12.0,0.,12.0
1979-03-04 12:40:55.000 ,6,0,0.,12.0,0.,12.0,0.,12.0,0.,12.0
1979-03-04 12:41:07.000 ,7,0,0.,12.0,0.,12.0,0.,12.0,0.,12.0
1979-03-04 12:41:19.000 ,7,0,0.,12.0,0.,12.0,0.,12.0,0.,12.0
1979-03-04 12:41:31.000 ,7,0,0.,12.0,0.,12.0,0.,12.0,0.,12.0
1979-03-04 12:41:43.000 ,7,0,0.,12.0,0.,12.0,0.,12.0,0.,12.0
1979-03-04 12:41:55.000 ,6,0,0.,12.0,0.,12.0,0.,12.0,0.,12.0
1979-03-04 12:42:07.000 ,6,0,1.,12.0,0.,12.0,0.,12.0,0.,12.0
1979-03-04 12:42:19.000 ,5,0,0.,12.0,0.,12.0,0.,12.0,0.,12.0
1979-03-04 12:42:31.000 ,5,0,0.,12.0,0.,12.0,0.,12.0,0.,12.0
1979-03-04 12:42:43.000 ,4,0,0.,12.0,0.,12.0,0.,12.0,0.,12.0
1979-03-04 12:42:55.000 ,4,0,0.,12.0,0.,12.0,0.,12.0,0.,12.0
1979-03-04 12:43:07.000 ,3,0,0.,12.0,0.,12.0,0.,12.0,0.,12.0
1979-03-04 12:43:19.000 ,3,0,0.,12.0,0.,12.0,0.,12.0,0.,12.0
1979-03-04 12:43:31.000 ,2,0,1.,12.0,0.,12.0,0.,12.0,0.,12.0
1979-03-04 12:43:43.000 ,2,0,0.,12.0,0.,12.0,0.,12.0,0.,12.0
1979-03-04 12:43:55.000 ,1,0,0.,12.0,0.,12.0,0.,12.0,0.,12.0
1979-03-04 12:44:07.000 ,1,0,0.,12.0,0.,12.0,0.,12.0,0.,12.0
1979-03-04 12:44:19.000 ,0,0,1.,12.0,0.,12.0,0.,12.0,0.,12.0
1979-03-04 12:44:31.000 ,0,0,0.,12.0,0.,12.0,0.,12.0,0.,12.0
1979-03-04 12:44:43.000 ,0,0,0.,12.0,0.,12.0,0.,12.0,0.,12.0
1979-03-04 12:44:55.000 ,0,0,0.,12.0,0.,12.0,0.,12.0,0.,12.0
1979-03-04 12:45:07.000 ,1,0,0.,12.0,0.,12.0,0.,12.0,0.,12.0
1979-03-04 12:45:19.000 ,1,0,2.,12.0,0.,12.0,0.,12.0,0.,12.0
1979-03-04 12:45:31.000 ,2,0,0.,12.0,0.,12.0,0.,12.0,0.,12.0
1979-03-04 12:45:43.000 ,2,0,0.,12.0,0.,12.0,0.,12.0,0.,12.0
1979-03-04 12:45:55.000 ,3,0,1.,12.0,0.,12.0,0.,12.0,0.,12.0
1979-03-04 12:46:07.000 ,3,0,0.,12.0,0.,12.0,0.,12.0,0.,12.0
1979-03-04 12:46:19.000 ,4,0,0.,12.0,0.,12.0,0.,12.0,0.,12.0
1979-03-04 12:46:31.000 ,4,0,0.,12.0,0.,12.0,0.,12.0,0.,12.0
1979-03-04 12:46:43.000 ,5,0,1.,12.0,0.,12.0,0.,12.0,0.,12.0
1979-03-04 12:46:55.000 ,5,0,0.,12.0,0.,12.0,0.,12.0,0.,12.0
1979-03-04 12:47:07.000 ,6,0,0.,12.0,0.,12.0,0.,12.0,0.,12.0
1979-03-04 12:47:19.000 ,6,0,0.,12.0,0.,12.0,0.,12.0,0.,12.0
1979-03-04 12:47:31.000 ,7,0,0.,12.0,0.,12.0,0.,12.0,0.,12.0
1979-03-04 12:47:43.000 ,7,0,0.,12.0,0.,12.0,0.,12.0,0.,12.0
1979-03-04 12:47:55.000 ,7,0,0.,12.0,0.,12.0,0.,12.0,0.,12.0
1979-03-04 12:48:07.000 ,7,0,0.,12.0,0.,12.0,0.,12.0,0.,12.0
1979-03-04 12:48:19.000 ,6,0,0.,12.0,0.,12.0,0.,12.0,0.,12.0
1979-03-04 12:48:31.000 ,6,0,0.,12.0,0.,12.0,0.,12.0,0.,12.0
1979-03-04 12:48:43.000 ,5,0,0.,12.0,0.,12.0,0.,12.0,0.,12.0
1979-03-04 12:48:55.000 ,5,0,1.,12.0,0.,12.0,0.,12.0,0.,12.0
1979-03-04 12:49:07.000 ,4,0,1.,12.0,0.,12.0,0.,12.0,0.,12.0
1979-03-04 12:49:19.000 ,4,0,0.,12.0,0.,12.0,0.,12.0,0.,12.0
1979-03-04 12:49:31.000 ,3,0,0.,12.0,0.,12.0,0.,12.0,0.,12.0
1979-03-04 12:49:43.000 ,3,0,0.,12.0,0.,12.0,0.,12.0,0.,12.0
1979-03-04 12:49:55.000 ,2,0,0.,12.0,0.,12.0,0.,12.0,0.,12.0
1979-03-04 12:50:07.000 ,2,0,0.,12.0,0.,12.0,0.,12.0,0.,12.0
1979-03-04 12:50:19.000 ,1,0,0.,12.0,0.,12.0,0.,12.0,0.,12.0
1979-03-04 12:50:31.000 ,1,0,1.,12.0,0.,12.0,0.,12.0,0.,12.0
1979-03-04 12:50:43.000 ,0,0,0.,12.0,0.,12.0,0.,12.0,0.,12.0
1979-03-04 12:50:55.000 ,0,0,1.,12.0,0.,12.0,0.,12.0,0.,12.0
1979-03-04 12:51:07.000 ,0,0,0.,12.0,0.,12.0,0.,12.0,0.,12.0
1979-03-04 12:51:19.000 ,0,0,0.,12.0,0.,12.0,0.,12.0,0.,12.0
1979-03-04 12:51:31.000 ,1,0,0.,12.0,0.,12.0,0.,12.0,0.,12.0
1979-03-04 12:51:43.000 ,1,0,0.,12.0,0.,12.0,0.,12.0,0.,12.0
1979-03-04 12:51:55.000 ,2,0,0.,12.0,0.,12.0,0.,12.0,0.,12.0
1979-03-04 12:52:07.000 ,2,0,0.,12.0,0.,12.0,0.,12.0,0.,12.0
1979-03-04 12:52:19.000 ,3,0,0.,12.0,0.,12.0,0.,12.0,0.,12.0
1979-03-04 12:52:31.000 ,3,0,3.,12.0,0.,12.0,0.,12.0,0.,12.0
1979-03-04 12:52:43.000 ,4,0,0.,12.0,0.,12.0,0.,12.0,0.,12.0
1979-03-04 12:52:55.000 ,4,0,0.,12.0,0.,12.0,0.,12.0,0.,12.0
1979-03-04 12:53:07.000 ,5,0,0.,12.0,0.,12.0,0.,12.0,0.,12.0
1979-03-04 12:53:19.000 ,5,0,0.,12.0,0.,12.0,0.,12.0,0.,12.0
1979-03-04 12:53:31.000 ,6,0,1.,12.0,0.,12.0,0.,12.0,0.,12.0
1979-03-04 12:53:43.000 ,6,0,1.,12.0,0.,12.0,0.,12.0,0.,12.0
1979-03-04 12:53:55.000 ,7,0,3.,12.0,0.,12.0,0.,12.0,0.,12.0
1979-03-04 12:54:07.000 ,7,0,0.,12.0,0.,12.0,0.,12.0,0.,12.0
1979-03-04 12:54:19.000 ,7,0,0.,12.0,0.,12.0,0.,12.0,0.,12.0
1979-03-04 12:54:31.000 ,7,0,0.,12.0,0.,12.0,0.,12.0,0.,12.0
1979-03-04 12:54:43.000 ,6,0,0.,12.0,0.,12.0,0.,12.0,0.,12.0
1979-03-04 12:54:55.000 ,6,0,0.,12.0,0.,12.0,0.,12.0,0.,12.0
1979-03-04 12:55:07.000 ,5,0,1.,12.0,0.,12.0,0.,12.0,0.,12.0
1979-03-04 12:55:19.000 ,5,0,2.,12.0,0.,12.0,0.,12.0,0.,12.0
1979-03-04 12:55:31.000 ,4,0,3.,12.0,0.,12.0,0.,12.0,0.,12.0
1979-03-04 12:55:43.000 ,4,0,2.,12.0,0.,12.0,0.,12.0,0.,12.0
1979-03-04 12:55:55.000 ,3,0,3.,12.0,0.,12.0,0.,12.0,0.,12.0
1979-03-04 12:56:07.000 ,3,0,0.,12.0,0.,12.0,0.,12.0,0.,12.0
1979-03-04 12:56:19.000 ,2,0,0.,12.0,0.,12.0,0.,12.0,0.,12.0
1979-03-04 12:56:31.000 ,2,0,0.,12.0,0.,12.0,0.,12.0,0.,12.0
1979-03-04 12:56:43.000 ,1,0,0.,12.0,0.,12.0,0.,12.0,0.,12.0
1979-03-04 12:56:55.000 ,1,0,1.,12.0,0.,12.0,0.,12.0,0.,12.0
1979-03-04 12:57:07.000 ,0,0,0.,12.0,0.,12.0,0.,12.0,0.,12.0
1979-03-04 12:57:19.000 ,0,0,1.,12.0,0.,12.0,0.,12.0,0.,12.0
1979-03-04 12:57:31.000 ,0,0,1.,12.0,0.,12.0,0.,12.0,0.,12.0
1979-03-04 12:57:43.000 ,0,0,2.,12.0,0.,12.0,0.,12.0,0.,12.0
1979-03-04 12:57:55.000 ,1,0,1.,12.0,0.,12.0,0.,12.0,0.,12.0
1979-03-04 12:58:07.000 ,1,0,0.,12.0,0.,12.0,0.,12.0,0.,12.0
1979-03-04 12:58:19.000 ,2,0,0.,12.0,0.,12.0,0.,12.0,0.,12.0
1979-03-04 12:58:31.000 ,2,0,0.,12.0,0.,12.0,0.,12.0,0.,12.0
1979-03-04 12:58:43.000 ,3,0,1.,12.0,0.,12.0,0.,12.0,0.,12.0
1979-03-04 12:58:55.000 ,3,0,0.,12.0,0.,12.0,0.,12.0,0.,12.0
1979-03-04 12:59:07.000 ,4,0,0.,12.0,0.,12.0,0.,12.0,0.,12.0
1979-03-04 12:59:19.000 ,4,0,2.,12.0,0.,12.0,0.,12.0,0.,12.0
1979-03-04 12:59:31.000 ,5,0,1.,12.0,0.,12.0,0.,12.0,0.,12.0
1979-03-04 12:59:43.000 ,5,0,1.,12.0,0.,12.0,0.,12.0,0.,12.0
1979-03-04 12:59:55.000 ,6,0,2.,12.0,0.,12.0,0.,12.0,0.,12.0
1979-03-04 13:00:07.000 ,6,0,1.,12.0,0.,12.0,0.,12.0,0.,12.0
1979-03-04 13:00:19.000 ,7,0,3.,12.0,0.,12.0,0.,12.0,0.,12.0
1979-03-04 13:00:31.000 ,7,0,0.,12.0,0.,12.0,0.,12.0,0.,12.0
1979-03-04 13:00:43.000 ,7,0,0.,12.0,0.,12.0,0.,12.0,0.,12.0
1979-03-04 13:00:55.000 ,7,0,0.,12.0,0.,12.0,0.,12.0,0.,12.0
1979-03-04 13:01:07.000 ,6,0,0.,12.0,0.,12.0,0.,12.0,0.,12.0
1979-03-04 13:01:19.000 ,6,0,1.,12.0,0.,12.0,0.,12.0,0.,12.0
1979-03-04 13:01:31.000 ,5,0,0.,12.0,0.,12.0,0.,12.0,0.,12.0
1979-03-04 13:01:43.000 ,5,0,5.,12.0,0.,12.0,0.,12.0,0.,12.0
1979-03-04 13:01:55.000 ,4,0,1.,12.0,0.,12.0,0.,12.0,0.,12.0
1979-03-04 13:02:07.000 ,4,0,0.,12.0,0.,12.0,0.,12.0,0.,12.0
1979-03-04 13:02:19.000 ,3,0,3.,12.0,0.,12.0,0.,12.0,0.,12.0
1979-03-04 13:02:31.000 ,3,0,0.,12.0,0.,12.0,0.,12.0,0.,12.0
1979-03-04 13:02:43.000 ,2,0,0.,12.0,0.,12.0,0.,12.0,0.,12.0
1979-03-04 13:02:55.000 ,2,0,1.,12.0,0.,12.0,0.,12.0,0.,12.0
1979-03-04 13:03:07.000 ,1,0,0.,12.0,0.,12.0,0.,12.0,0.,12.0
1979-03-04 13:03:19.000 ,1,0,0.,12.0,0.,12.0,0.,12.0,0.,12.0
1979-03-04 13:03:31.000 ,0,0,0.,12.0,0.,12.0,0.,12.0,0.,12.0
1979-03-04 13:03:43.000 ,0,0,1.,12.0,0.,12.0,0.,12.0,0.,12.0
1979-03-04 13:03:55.000 ,0,0,0.,12.0,0.,12.0,0.,12.0,0.,12.0
1979-03-04 13:04:07.000 ,0,0,1.,12.0,0.,12.0,0.,12.0,0.,12.0
1979-03-04 13:04:19.000 ,1,0,1.,12.0,0.,12.0,0.,12.0,0.,12.0
1979-03-04 13:04:31.000 ,1,0,0.,12.0,0.,12.0,0.,12.0,0.,12.0
1979-03-04 13:04:43.000 ,2,0,0.,12.0,0.,12.0,0.,12.0,0.,12.0
1979-03-04 13:04:55.000 ,2,0,0.,12.0,0.,12.0,0.,12.0,0.,12.0
1979-03-04 13:05:07.000 ,3,0,0.,12.0,0.,12.0,0.,12.0,0.,12.0
1979-03-04 13:05:19.000 ,3,0,1.,12.0,0.,12.0,0.,12.0,0.,12.0
1979-03-04 13:05:31.000 ,4,0,2.,12.0,0.,12.0,0.,12.0,0.,12.0
1979-03-04 13:05:43.000 ,4,0,1.,12.0,0.,12.0,0.,12.0,0.,12.0
1979-03-04 13:05:55.000 ,5,0,0.,12.0,0.,12.0,0.,12.0,0.,12.0
1979-03-04 13:06:07.000 ,5,0,1.,12.0,0.,12.0,0.,12.0,0.,12.0
1979-03-04 13:06:19.000 ,6,0,0.,12.0,0.,12.0,0.,12.0,0.,12.0
1979-03-04 13:06:31.000 ,6,0,2.,12.0,0.,12.0,0.,12.0,0.,12.0
1979-03-04 13:06:43.000 ,7,0,1.,12.0,0.,12.0,0.,12.0,0.,12.0
1979-03-04 13:06:55.000 ,7,0,0.,12.0,0.,12.0,0.,12.0,0.,12.0
1979-03-04 13:07:07.000 ,7,0,0.,12.0,0.,12.0,0.,12.0,0.,12.0
1979-03-04 13:07:19.000 ,7,0,0.,12.0,0.,12.0,0.,12.0,0.,12.0
1979-03-04 13:07:31.000 ,6,0,0.,12.0,0.,12.0,0.,12.0,0.,12.0
1979-03-04 13:07:43.000 ,6,0,4.,12.0,0.,12.0,0.,12.0,0.,12.0
1979-03-04 13:07:55.000 ,5,0,1.,12.0,0.,12.0,0.,12.0,0.,12.0
1979-03-04 13:08:07.000 ,5,0,2.,12.0,0.,12.0,0.,12.0,0.,12.0
1979-03-04 13:08:19.000 ,4,0,2.,12.0,0.,12.0,0.,12.0,0.,12.0
1979-03-04 13:08:31.000 ,4,0,3.,12.0,0.,12.0,0.,12.0,0.,12.0
1979-03-04 13:08:43.000 ,3,0,0.,12.0,0.,12.0,0.,12.0,0.,12.0
1979-03-04 13:08:55.000 ,3,0,0.,12.0,0.,12.0,0.,12.0,0.,12.0
1979-03-04 13:09:07.000 ,2,0,1.,12.0,0.,12.0,0.,12.0,0.,12.0
1979-03-04 13:09:19.000 ,2,0,0.,12.0,0.,12.0,0.,12.0,0.,12.0
1979-03-04 13:09:31.010 ,1,0,0.,12.0,0.,12.0,0.,12.0,0.,12.0
1979-03-04 13:09:43.010 ,1,0,1.,12.0,0.,12.0,0.,12.0,0.,12.0
1979-03-04 13:09:55.010 ,0,0,0.,12.0,0.,12.0,0.,12.0,0.,12.0
1979-03-04 13:10:07.010 ,0,0,2.,12.0,0.,12.0,0.,12.0,0.,12.0
1979-03-04 13:10:19.010 ,0,0,1.,12.0,0.,12.0,0.,12.0,0.,12.0
1979-03-04 13:10:31.010 ,0,0,1.,12.0,0.,12.0,0.,12.0,0.,12.0
1979-03-04 13:10:43.010 ,1,0,2.,12.0,0.,12.0,0.,12.0,0.,12.0
1979-03-04 13:10:55.010 ,1,0,1.,12.0,0.,12.0,0.,12.0,0.,12.0
1979-03-04 13:11:07.010 ,2,0,0.,12.0,0.,12.0,0.,12.0,0.,12.0
1979-03-04 13:11:19.010 ,2,0,1.,12.0,0.,12.0,0.,12.0,0.,12.0
1979-03-04 13:11:31.010 ,3,0,0.,12.0,0.,12.0,0.,12.0,0.,12.0
1979-03-04 13:11:43.010 ,3,0,2.,12.0,0.,12.0,0.,12.0,0.,12.0
1979-03-04 13:11:55.010 ,4,0,0.,12.0,0.,12.0,0.,12.0,0.,12.0
1979-03-04 13:12:07.010 ,4,0,1.,12.0,0.,12.0,0.,12.0,0.,12.0
1979-03-04 13:12:19.010 ,5,0,1.,12.0,0.,12.0,0.,12.0,0.,12.0
1979-03-04 13:12:31.010 ,5,0,1.,12.0,0.,12.0,0.,12.0,0.,12.0
1979-03-04 13:12:43.010 ,6,0,0.,12.0,0.,12.0,0.,12.0,0.,12.0
1979-03-04 13:12:55.010 ,6,0,0.,12.0,0.,12.0,0.,12.0,0.,12.0
1979-03-04 13:13:07.010 ,7,0,0.,12.0,0.,12.0,0.,12.0,0.,12.0
1979-03-04 13:13:19.010 ,7,0,0.,12.0,0.,12.0,0.,12.0,0.,12.0
1979-03-04 13:13:31.010 ,7,0,0.,12.0,0.,12.0,0.,12.0,0.,12.0
1979-03-04 13:13:43.010 ,7,0,0.,12.0,0.,12.0,0.,12.0,0.,12.0
1979-03-04 13:13:55.010 ,6,0,0.,12.0,0.,12.0,0.,12.0,0.,12.0
1979-03-04 13:14:07.010 ,6,0,3.,12.0,0.,12.0,0.,12.0,0.,12.0
1979-03-04 13:14:19.010 ,5,0,3.,12.0,0.,12.0,0.,12.0,0.,12.0
1979-03-04 13:14:31.010 ,5,0,2.,12.0,0.,12.0,0.,12.0,0.,12.0
1979-03-04 13:14:43.010 ,4,0,3.,12.0,0.,12.0,0.,12.0,0.,12.0
1979-03-04 13:14:55.010 ,4,0,3.,12.0,0.,12.0,0.,12.0,0.,12.0
1979-03-04 13:15:07.010 ,3,0,2.,12.0,0.,12.0,0.,12.0,0.,12.0
1979-03-04 13:15:19.010 ,3,0,1.,12.0,0.,12.0,0.,12.0,0.,12.0
1979-03-04 13:15:31.010 ,2,0,2.,12.0,0.,12.0,0.,12.0,0.,12.0
1979-03-04 13:15:43.010 ,2,0,0.,12.0,0.,12.0,0.,12.0,0.,12.0
1979-03-04 13:15:55.010 ,1,0,0.,12.0,0.,12.0,0.,12.0,0.,12.0
1979-03-04 13:16:07.010 ,1,0,1.,12.0,0.,12.0,0.,12.0,0.,12.0
1979-03-04 13:16:19.010 ,0,0,1.,12.0,0.,12.0,0.,12.0,0.,12.0
1979-03-04 13:16:31.010 ,0,0,4.,12.0,0.,12.0,0.,12.0,0.,12.0
1979-03-04 13:16:43.010 ,0,0,2.,12.0,0.,12.0,0.,12.0,0.,12.0
1979-03-04 13:16:55.010 ,0,0,0.,12.0,0.,12.0,0.,12.0,0.,12.0
1979-03-04 13:17:07.010 ,1,0,1.,12.0,0.,12.0,0.,12.0,0.,12.0
1979-03-04 13:17:19.010 ,1,0,2.,12.0,0.,12.0,0.,12.0,0.,12.0
1979-03-04 13:17:31.010 ,2,0,1.,12.0,0.,12.0,0.,12.0,0.,12.0
1979-03-04 13:17:43.010 ,2,0,2.,12.0,0.,12.0,0.,12.0,0.,12.0
1979-03-04 13:17:55.010 ,3,0,0.,12.0,0.,12.0,0.,12.0,0.,12.0
1979-03-04 13:18:07.010 ,3,0,1.,12.0,0.,12.0,0.,12.0,0.,12.0